Theta_e
311 316 317 317 316 316 316 316 318 315 312 314 317 317 314 309 308 307 305 304 302 302 303 304 305 308 310 313 315 317 319 320 320 320 320 320 319 318 318 316 315 315 316 315
313 316 317 312 312 313 313 316 317 314 311 313 315 315 315 309 310 308 306 303 302 301 302 303 305 307 309 310 310 310 310 311 312 312 312 312 314 313 309 308 306 305 305 305
317 315 311 312 311 313 313 315 316 316 312 311 313 316 316 310 306 305 304 303 301 301 302 303 304 304 305 305 304 304 304 304 304 304 305 305 305 304 303 303 302 302 302 302
313 311 310 311 313 313 316 312 312 312 313 319 313 322 317 313 309 305 303 301 301 299 300 301 302 302 302 302 302 302 302 302 302 302 302 302 302 302 301 300 299 298 297 297
316 311 312 313 314 311 317 310 312 312 314 314 315 317 319 310 311 307 304 301 301 299 299 300 300 301 301 301 301 301 301 301 301 300 300 299 299 298 297 296 295 294 293 293
314 308 311 314 309 311 309 311 311 311 314 318 317 317 320 315 313 311 304 301 300 298 299 299 299 300 300 299 300 300 300 299 299 298 298 297 297 296 296 295 294 294 293 292
313 313 309 308 311 308 311 315 320 319 318 321 310 315 319 315 309 309 306 302 300 298 297 298 299 299 299 299 299 299 298 298 297 297 297 297 297 296 296 295 295 294 293 292
320 321 312 309 315 315 312 317 322 325 321 319 309 315 316 307 304 304 306 302 300 298 297 298 299 299 299 299 298 298 297 297 297 297 297 296 296 295 295 294 293 292 291 291
318 319 309 307 308 313 311 313 314 313 305 317 317 314 312 305 304 303 303 301 299 298 298 299 299 299 299 298 298 297 297 296 296 296 295 295 294 293 293 292 291 290 290 289
316 318 309 307 309 309 311 312 314 314 322 323 318 317 320 310 308 304 303 302 300 299 298 298 299 299 298 297 297 296 295 295 295 295 294 293 292 291 291 290 290 289 288 288
312 315 312 308 311 314 311 312 312 314 316 324 323 319 314 315 310 306 304 303 301 299 299 299 299 299 299 298 297 296 295 294 294 293 292 291 291 290 290 289 288 288 288 287
313 314 316 312 308 306 312 314 313 318 316 313 315 320 306 308 309 307 306 303 302 300 300 300 299 299 299 299 298 296 294 294 293 292 291 291 290 289 289 288 288 288 288 287
312 316 320 316 310 307 310 310 311 313 314 319 322 320 305 304 304 304 305 303 302 301 301 300 299 299 299 299 298 297 295 294 292 291 290 290 289 289 289 288 288 288 288 288
312 315 318 322 320 315 313 311 310 313 317 318 317 317 308 307 306 304 303 304 302 302 302 299 299 300 299 299 298 298 297 294 293 291 290 289 289 288 288 288 288 288 288 288
312 316 315 315 314 312 314 313 311 312 314 318 318 316 313 309 307 307 306 303 302 302 301 300 301 300 300 300 299 298 296 295 294 291 289 289 288 288 288 288 288 288 288 288
309 317 315 315 315 311 312 312 311 312 313 314 315 314 312 309 306 304 304 302 302 302 302 302 302 302 301 301 301 299 298 296 294 292 290 289 288 288 288 288 288 288 288 287
311 314 313 319 315 308 311 312 311 311 312 312 314 313 306 305 305 306 304 303 304 302 302 302 302 302 301 300 298 298 298 296 295 293 290 289 289 288 288 288 288 288 287 287
312 313 314 316 309 315 310 299 310 310 309 308 306 305 305 305 304 304 304 304 303 303 302 302 302 300 297 296 295 295 296 296 294 292 290 290 289 288 288 288 287 287 287 287
305 308 304 309 310 312 300 298 306 308 311 305 307 303 299 298 300 300 302 302 302 302 301 299 297 295 293 293 294 294 295 295 294 293 291 291 290 289 288 288 287 287 286 286
301 305 312 305 314 317 307 297 296 301 308 299 304 301 296 295 304 305 300 298 297 296 295 293 293 293 293 293 293 293 293 294 293 291 291 290 289 289 288 287 286 286 286 285
303 302 310 307 311 308 304 294 294 307 311 296 302 300 295 298 301 297 296 296 294 293 293 292 292 292 293 292 292 291 290 290 290 289 289 288 288 288 287 287 286 285 285 285
305 306 307 306 309 311 293 293 301 301 295 297 296 299 297 296 294 294 293 292 292 292 292 292 292 292 292 291 291 290 290 290 289 289 288 289 288 288 287 286 286 285 285 285
304 305 307 306 307 294 294 295 295 295 296 294 295 295 295 294 294 293 292 292 292 292 292 291 291 291 291 291 290 290 290 289 289 289 289 289 288 288 287 286 285 285 285 284
295 292 300 300 295 293 293 294 295 294 296 296 295 295 295 294 294 292 292 292 292 291 291 291 291 291 291 290 290 290 290 290 289 289 289 288 288 287 286 285 285 284 284 283
296 294 294 293 291 291 292 294 298 296 294 294 293 293 293 293 292 292 292 292 291 291 291 291 291 291 291 291 290 290 290 289 289 289 288 287 287 286 285 284 284 283 283 283
291 292 294 296 293 295 295 298 294 294 293 293 293 293 292 292 292 292 292 291 291 290 291 291 291 290 290 290 290 290 289 289 289 288 287 287 286 285 284 283 283 282 282 282
Wind_Speed
3 7 12 18 16 4 1 4 9 2 1 4 11 13 11 10 8 10 9 7 6 6 7 9 9 11 13 15 16 18 18 19 19 18 15 12 12 11 9 6 4 1 1 2
5 13 14 2 8 8 5 8 14 5 3 4 9 13 14 13 11 13 13 13 12 11 12 14 15 16 17 19 18 18 18 18 17 17 17 16 16 14 12 11 9 8 6 5
12 3 9 9 7 10 11 14 12 9 2 5 5 15 19 8 8 8 12 13 15 17 21 22 22 23 24 25 25 25 25 24 23 20 18 17 15 15 13 11 9 9 8 8
9 4 7 11 10 12 14 12 10 7 4 9 2 7 5 9 9 12 15 18 18 17 19 23 25 26 25 25 24 22 21 19 19 17 15 13 12 10 10 8 7 7 7 7
6 9 9 10 9 11 6 5 9 7 9 6 8 7 7 4 11 13 19 20 21 20 23 26 25 26 25 24 22 21 19 17 16 13 10 7 6 9 10 9 7 7 7 8
4 1 4 4 3 6 13 7 5 3 2 8 15 13 7 8 8 13 21 25 26 25 28 28 27 26 25 23 21 20 17 16 15 12 11 9 9 10 9 8 6 6 7 7
4 9 4 4 5 3 7 11 4 5 5 7 1 10 12 7 5 7 24 28 26 26 28 29 28 26 24 22 20 18 16 12 12 11 9 8 7 7 5 3 1 2 3 4
10 7 15 13 18 10 17 14 6 7 6 2 2 8 5 1 6 5 15 27 28 28 31 33 31 28 27 24 21 18 15 11 10 9 8 8 7 7 5 4 2 1 2 5
9 7 3 4 4 14 8 10 3 4 1 2 6 5 7 4 6 7 14 24 29 30 33 34 32 30 27 24 21 18 14 11 10 11 11 10 9 8 6 5 4 3 3 4
5 5 2 2 3 1 5 10 4 4 5 7 6 7 9 9 13 11 15 25 28 29 33 35 35 32 28 25 22 20 16 13 13 13 13 12 10 9 7 5 4 3 3 5
5 4 4 6 12 17 6 7 5 3 4 4 5 5 6 12 15 18 22 25 30 33 37 39 37 33 30 27 25 22 19 17 16 15 15 13 11 10 9 6 4 3 5 7
10 2 6 11 1 2 11 10 13 6 6 4 3 6 3 2 9 17 18 23 26 32 36 38 38 37 33 29 27 25 21 19 18 18 17 16 15 13 10 7 5 4 7 10
12 5 5 3 3 2 9 10 13 6 2 12 7 5 3 4 5 11 14 18 25 30 34 37 38 39 36 33 31 28 23 22 21 20 19 19 17 15 13 10 7 7 9 12
25 8 16 17 5 10 10 14 15 17 10 16 20 11 7 8 9 12 15 19 23 30 38 36 36 39 37 35 32 30 26 25 23 23 22 22 20 18 16 14 11 10 12 14
11 15 19 21 9 7 8 18 21 25 31 16 20 20 14 15 15 19 19 19 22 29 35 39 39 38 37 36 33 31 29 27 26 26 26 25 24 22 21 18 15 14 15 16
2 13 17 19 21 14 13 17 25 27 27 26 15 16 8 20 12 11 18 20 25 32 37 39 38 36 36 33 30 30 31 31 29 29 28 27 27 26 25 22 20 19 19 19
12 14 8 16 15 4 7 26 20 17 21 19 20 14 7 7 14 18 18 23 29 29 33 34 34 31 27 25 25 26 28 29 31 30 29 29 29 29 29 27 26 24 23 22
12 18 8 5 6 10 6 3 16 17 12 12 2 5 8 7 14 16 15 20 21 23 24 26 24 22 21 19 20 22 23 26 28 29 29 29 31 33 32 31 30 28 26 23
2 6 4 4 7 6 1 4 9 12 14 11 13 5 6 7 5 5 14 15 16 19 18 18 17 17 17 19 20 21 21 21 24 27 27 29 32 33 34 34 32 30 27 25
2 4 8 4 5 9 1 2 4 4 6 8 14 8 10 13 6 7 15 15 16 16 16 15 16 18 19 20 20 19 18 19 20 22 25 27 28 30 32 33 31 30 28 26
4 2 13 6 6 5 4 7 9 6 4 8 18 18 22 7 7 7 15 19 17 15 14 13 15 16 16 18 19 19 16 17 20 20 22 23 25 28 30 31 30 29 27 28
9 8 5 4 5 9 9 6 8 4 9 16 17 20 24 16 16 20 20 18 16 13 11 10 12 14 17 20 23 22 18 18 18 21 21 22 24 27 30 30 29 28 28 30
4 4 4 7 3 2 20 4 6 12 15 15 18 20 18 18 22 20 18 14 11 10 11 14 17 19 22 24 26 24 21 21 22 25 26 26 26 29 30 30 29 28 29 31
5 5 4 4 4 3 16 8 13 12 14 16 16 17 18 19 19 19 17 15 13 12 13 16 21 25 27 28 28 27 25 25 27 28 30 30 29 29 30 30 29 29 30 30
2 10 6 1 1 3 13 13 19 21 19 19 16 15 16 19 19 20 18 18 15 14 15 18 20 24 26 29 32 32 30 31 30 29 29 30 29 29 29 30 30 31 30 31
7 6 4 3 12 6 16 27 24 27 24 19 16 17 16 17 18 19 20 19 18 17 17 19 22 22 24 25 27 30 33 32 28 27 28 28 27 27 28 29 30 30 31 32
Wind_Direction
150 203 215 213 217 254 180 220 252 200 171 244 239 256 198 188 192 194 189 173 153 145 129 125 125 125 126 126 116 113 111 112 117 122 126 132 135 128 135 130 119 154 249 288
164 228 229 139 195 211 227 245 252 271 206 238 249 253 254 201 222 212 189 176 165 149 136 130 126 127 125 125 124 119 114 111 113 116 116 119 116 117 109 100 95 87 72 59
211 163 184 173 165 200 226 230 240 260 151 213 275 264 247 210 207 195 188 178 170 162 153 143 135 131 127 125 121 119 116 116 113 108 103 104 107 104 100 95 87 77 61 50
234 170 151 183 211 201 236 221 238 237 242 260 223 280 232 206 204 199 188 182 173 166 158 148 141 137 133 128 124 122 120 118 114 109 102 102 102 105 102 96 82 69 56 45
199 178 185 203 213 186 257 142 206 220 237 267 212 263 239 195 223 203 191 183 177 171 166 159 153 147 142 136 132 129 126 120 114 114 111 103 107 119 108 93 85 71 58 46
274 119 206 211 96 187 137 105 89 95 203 252 227 218 206 212 219 181 186 187 182 177 174 169 164 157 151 147 143 136 134 133 133 139 136 124 95 98 95 87 69 48 33 23
193 219 182 164 129 92 186 164 195 223 210 249 152 214 252 237 180 188 188 185 183 181 180 176 172 167 163 160 155 149 145 139 140 143 131 116 107 111 112 96 79 40 359 346
201 231 191 190 213 185 193 192 199 214 205 223 129 226 238 319 136 149 186 182 181 183 186 184 180 177 177 174 167 163 161 157 147 153 155 155 156 162 168 176 194 253 315 321
193 244 191 205 142 170 179 214 178 113 97 257 208 236 250 185 193 176 167 179 186 188 190 189 187 187 186 184 179 178 174 175 172 175 181 183 184 189 197 202 218 249 287 310
202 242 219 146 137 199 200 145 170 217 214 231 210 240 223 202 208 184 186 192 190 192 195 195 195 194 194 192 190 188 189 189 190 193 196 197 201 207 205 214 218 241 297 312
157 233 139 140 209 189 174 194 209 210 220 231 258 233 218 199 192 189 198 196 193 195 197 199 199 200 201 200 201 202 199 201 202 204 206 207 212 216 218 219 227 281 315 322
198 188 197 206 139 306 233 222 191 201 189 245 306 248 160 161 182 187 191 196 197 201 201 202 203 205 205 208 210 210 209 209 211 213 214 215 218 219 218 225 251 292 314 321
170 206 219 220 218 182 219 205 217 213 45 211 198 220 160 146 209 198 189 195 201 203 203 203 205 209 211 215 217 217 218 219 218 219 220 223 223 223 225 233 254 287 311 319
163 183 210 225 205 156 203 205 207 206 227 227 233 241 196 206 208 200 207 207 205 206 206 204 207 212 215 221 224 225 225 225 225 225 226 228 229 230 236 242 254 278 299 309
191 223 218 238 233 204 207 195 197 209 224 216 242 228 202 194 202 198 207 203 200 205 204 207 211 213 218 224 227 230 231 232 233 230 229 232 233 236 241 245 255 272 285 296
191 228 215 241 241 234 235 217 204 211 223 235 247 240 178 198 191 194 209 200 206 209 209 212 213 217 222 228 233 238 238 237 234 234 235 234 238 244 247 251 258 268 276 282
184 209 183 236 217 191 262 228 205 210 218 222 224 237 141 173 196 207 202 206 213 212 213 212 213 220 228 233 241 242 244 241 238 238 237 238 243 248 252 255 260 264 270 278
192 204 212 229 129 219 272 5 217 211 196 211 232 152 158 172 200 215 214 215 211 217 217 215 213 221 227 229 238 244 244 241 237 237 238 242 246 251 254 258 262 263 269 276
118 166 156 188 208 323 104 201 169 179 231 197 219 157 144 126 134 216 209 213 219 218 214 216 213 217 229 236 240 241 239 232 231 236 241 247 251 256 259 260 260 262 268 274
141 214 202 154 207 225 263 175 170 129 251 199 184 137 154 146 195 228 211 196 193 189 190 201 218 228 232 231 229 230 230 231 236 243 251 256 260 261 259 258 259 262 267 274
160 184 215 198 222 273 201 169 151 148 237 154 180 173 159 186 205 181 171 178 180 191 203 216 225 232 233 229 227 219 221 246 261 252 253 258 259 259 257 257 259 262 267 276
180 169 188 176 217 249 145 115 178 152 133 159 178 186 186 182 162 161 165 176 189 202 214 228 238 241 234 228 221 224 248 269 255 249 252 259 265 261 257 257 259 263 270 277
211 204 185 201 203 58 167 85 171 154 157 169 171 181 179 168 175 177 182 188 200 213 224 233 243 249 241 227 229 237 263 263 257 254 255 260 264 260 257 256 259 264 270 276
228 169 202 162 176 197 183 128 170 161 167 182 175 174 179 187 195 192 189 202 215 226 230 239 246 249 241 231 237 243 259 261 261 258 257 256 257 258 258 259 263 267 272 277
142 147 145 40 112 121 194 185 189 197 184 177 183 191 201 206 206 206 211 221 235 237 233 242 251 252 242 240 244 249 257 265 265 259 257 255 256 259 260 262 264 268 272 277
184 150 172 194 186 161 195 212 197 196 196 194 208 213 213 214 217 225 231 235 240 245 252 250 247 247 238 240 248 255 259 263 258 255 255 255 259 263 263 264 267 270 273 277